N511WM KCKF-KAGS

Flight info

Callsign N511WM
Flight time 0h 39m
Altitude 13000
Route UCALA TWINS
Aircraft BE60/L-SDFGRY/C

Departure

Time 2026-05-03 23:57
Airport Crisp County Cordele Airport (KCKF)

Arrival

Time 2026-05-04 00:36
Airport Augusta Regional At Bush Field (KAGS)
Time Latitude Longitude Altitude Speed Heading
2026-05-03 23:37 31.98582 -83.77461 306 ft 0 kts 187°
2026-05-03 23:48 31.98576 -83.77458 306 ft 3 kts 126°
2026-05-03 23:48 31.98588 -83.77399 307 ft 14 kts 99°
2026-05-03 23:48 31.98569 -83.77252 307 ft 18 kts 97°
2026-05-03 23:49 31.98557 -83.77148 308 ft 13 kts 96°
2026-05-03 23:49 31.98540 -83.77000 308 ft 21 kts 110°
2026-05-03 23:49 31.98497 -83.76917 309 ft 0 kts 123°
2026-05-03 23:49 31.98494 -83.76911 309 ft 0 kts 122°
2026-05-03 23:50 31.98493 -83.76910 309 ft 2 kts 121°
2026-05-03 23:51 31.98465 -83.76859 309 ft 13 kts 124°
2026-05-03 23:51 31.98401 -83.76749 309 ft 12 kts 113°
2026-05-03 23:51 31.98426 -83.76672 310 ft 13 kts 43°
2026-05-03 23:51 31.98520 -83.76602 310 ft 13 kts 27°
2026-05-03 23:52 31.98550 -83.76583 308 ft 0 kts 336°
2026-05-03 23:55 31.98552 -83.76583 310 ft 1 kts 345°
2026-05-03 23:55 31.98564 -83.76579 311 ft 0 kts 29°
2026-05-03 23:55 31.98570 -83.76575 311 ft 3 kts 28°
2026-05-03 23:56 31.98616 -83.76557 312 ft 11 kts 351°
2026-05-03 23:56 31.98645 -83.76632 311 ft 21 kts 277°
2026-05-03 23:56 31.98698 -83.77108 306 ft 92 kts 277°
2026-05-03 23:56 31.98798 -83.77996 461 ft 118 kts 276°
2026-05-03 23:57 31.98888 -83.79012 755 ft 135 kts 275°
2026-05-03 23:57 31.98975 -83.80161 1089 ft 147 kts 274°
2026-05-03 23:57 31.99031 -83.81367 1524 ft 144 kts 272°
2026-05-03 23:57 31.99060 -83.82505 2001 ft 142 kts 271°
2026-05-03 23:58 31.99086 -83.83698 2337 ft 147 kts 276°
2026-05-03 23:58 31.99559 -83.84785 2547 ft 159 kts 319°
2026-05-03 23:58 32.00572 -83.85192 2952 ft 157 kts
2026-05-03 23:58 32.01484 -83.84536 3335 ft 158 kts 54°
2026-05-03 23:59 32.02033 -83.83440 3825 ft 149 kts 58°
2026-05-03 23:59 32.02557 -83.82383 4202 ft 151 kts 59°
2026-05-03 23:59 32.03077 -83.81312 4627 ft 150 kts 58°
2026-05-03 23:59 32.03618 -83.80267 5039 ft 149 kts 56°
2026-05-04 00:00 32.04189 -83.79244 5439 ft 150 kts 54°
2026-05-04 00:00 32.04762 -83.78220 5851 ft 150 kts 54°
2026-05-04 00:00 32.05326 -83.77204 6265 ft 150 kts 54°
2026-05-04 00:00 32.05903 -83.76160 6679 ft 150 kts 54°
2026-05-04 00:01 32.06477 -83.75126 7063 ft 151 kts 53°
2026-05-04 00:01 32.07045 -83.74099 7451 ft 152 kts 53°
2026-05-04 00:01 32.07625 -83.73049 7847 ft 153 kts 53°
2026-05-04 00:01 32.08208 -83.71993 8247 ft 154 kts 52°
2026-05-04 00:02 32.08794 -83.70932 8643 ft 155 kts 52°
2026-05-04 00:02 32.09384 -83.69865 9043 ft 156 kts 52°
2026-05-04 00:02 32.09976 -83.68791 9447 ft 157 kts 51°
2026-05-04 00:02 32.10573 -83.67709 9856 ft 158 kts 51°
2026-05-04 00:03 32.11174 -83.66618 10248 ft 158 kts 51°
2026-05-04 00:03 32.11774 -83.65531 10634 ft 158 kts 51°
2026-05-04 00:03 32.12374 -83.64443 11019 ft 158 kts 51°
2026-05-04 00:03 32.12971 -83.63359 11419 ft 157 kts 52°
2026-05-04 00:04 32.13569 -83.62276 11807 ft 157 kts 52°
2026-05-04 00:04 32.14166 -83.61191 12194 ft 158 kts 52°
2026-05-04 00:04 32.14766 -83.60102 12576 ft 159 kts 52°
2026-05-04 00:04 32.15370 -83.59006 12964 ft 160 kts 53°
2026-05-04 00:05 32.15977 -83.57903 13355 ft 161 kts 53°
2026-05-04 00:05 32.16578 -83.56809 13733 ft 162 kts 53°
2026-05-04 00:05 32.17202 -83.55676 14110 ft 163 kts 53°
2026-05-04 00:05 32.17813 -83.54564 14453 ft 164 kts 53°
2026-05-04 00:06 32.18436 -83.53431 14809 ft 165 kts 53°
2026-05-04 00:06 32.19077 -83.52267 15000 ft 179 kts 53°
2026-05-04 00:06 32.19802 -83.50952 15018 ft 202 kts 54°
2026-05-04 00:06 32.20604 -83.49487 15023 ft 221 kts 54°
2026-05-04 00:07 32.21468 -83.47907 15023 ft 236 kts 54°
2026-05-04 00:07 32.22379 -83.46243 15018 ft 246 kts 54°
2026-05-04 00:07 32.23325 -83.44517 15009 ft 254 kts 54°
2026-05-04 00:07 32.24297 -83.42743 15020 ft 259 kts 54°
2026-05-04 00:08 32.25282 -83.40942 15019 ft 262 kts 54°
2026-05-04 00:08 32.26280 -83.39119 15018 ft 266 kts 54°
2026-05-04 00:08 32.27288 -83.37278 15020 ft 268 kts 54°
2026-05-04 00:08 32.28292 -83.35443 15009 ft 270 kts 54°
2026-05-04 00:09 32.29314 -83.33572 15011 ft 271 kts 54°
2026-05-04 00:09 32.30340 -83.31696 15011 ft 272 kts 54°
2026-05-04 00:09 32.31370 -83.29811 15013 ft 273 kts 55°
2026-05-04 00:09 32.32401 -83.27921 15012 ft 273 kts 55°
2026-05-04 00:10 32.33434 -83.26028 15013 ft 274 kts 54°
2026-05-04 00:10 32.34466 -83.24136 14992 ft 274 kts 54°
2026-05-04 00:10 32.35498 -83.22243 14992 ft 274 kts 55°
2026-05-04 00:10 32.36530 -83.20349 14993 ft 274 kts 55°
2026-05-04 00:11 32.37562 -83.18455 14990 ft 274 kts 55°
2026-05-04 00:11 32.38593 -83.16561 14990 ft 274 kts 55°
2026-05-04 00:11 32.39624 -83.14667 14987 ft 274 kts 55°
2026-05-04 00:11 32.40656 -83.12771 14987 ft 274 kts 55°
2026-05-04 00:12 32.41690 -83.10867 14990 ft 275 kts 55°
2026-05-04 00:12 32.42726 -83.08958 14992 ft 276 kts 55°
2026-05-04 00:12 32.43766 -83.07039 14992 ft 276 kts 54°
2026-05-04 00:12 32.44794 -83.05119 14993 ft 277 kts 58°
2026-05-04 00:13 32.45696 -83.03108 14992 ft 277 kts 60°
2026-05-04 00:13 32.46597 -83.01094 14991 ft 276 kts 59°
2026-05-04 00:13 32.47507 -82.99090 14993 ft 276 kts 59°
2026-05-04 00:13 32.48416 -82.97082 14993 ft 277 kts 59°
2026-05-04 00:14 32.49321 -82.95075 14989 ft 276 kts 59°
2026-05-04 00:14 32.50214 -82.93090 14989 ft 276 kts 60°
2026-05-04 00:14 32.51117 -82.91084 14989 ft 276 kts 59°
2026-05-04 00:14 32.52022 -82.89075 14990 ft 276 kts 59°
2026-05-04 00:15 32.52924 -82.87069 14989 ft 276 kts 59°
2026-05-04 00:15 32.53827 -82.85060 14989 ft 276 kts 59°
2026-05-04 00:15 32.54729 -82.83055 14988 ft 276 kts 60°
2026-05-04 00:15 32.55632 -82.81043 14988 ft 276 kts 60°
2026-05-04 00:16 32.56534 -82.79033 14988 ft 276 kts 60°
2026-05-04 00:16 32.57437 -82.77023 14986 ft 276 kts 60°
2026-05-04 00:16 32.58339 -82.75011 14984 ft 276 kts 60°
2026-05-04 00:16 32.59241 -82.72995 14983 ft 277 kts 60°
2026-05-04 00:17 32.60146 -82.70978 14982 ft 277 kts 60°
2026-05-04 00:17 32.61048 -82.68962 14982 ft 277 kts 60°
2026-05-04 00:17 32.61951 -82.66943 14981 ft 277 kts 60°
2026-05-04 00:17 32.62857 -82.64919 14976 ft 277 kts 60°
2026-05-04 00:18 32.63761 -82.62897 14980 ft 278 kts 60°
2026-05-04 00:18 32.64665 -82.60872 14979 ft 278 kts 60°
2026-05-04 00:18 32.65567 -82.58848 14979 ft 278 kts 60°
2026-05-04 00:18 32.66471 -82.56823 14977 ft 278 kts 60°
2026-05-04 00:19 32.67376 -82.54793 14975 ft 278 kts 60°
2026-05-04 00:19 32.68278 -82.52767 14975 ft 278 kts 60°
2026-05-04 00:19 32.69169 -82.50772 14975 ft 277 kts 59°
2026-05-04 00:19 32.70069 -82.48751 14975 ft 277 kts 60°
2026-05-04 00:20 32.70967 -82.46729 14975 ft 277 kts 60°
2026-05-04 00:20 32.71866 -82.44706 14973 ft 277 kts 60°
2026-05-04 00:20 32.72765 -82.42682 14972 ft 277 kts 60°
2026-05-04 00:20 32.73663 -82.40660 14972 ft 277 kts 60°
2026-05-04 00:21 32.74565 -82.38632 14967 ft 278 kts 60°
2026-05-04 00:21 32.75466 -82.36599 14967 ft 278 kts 60°
2026-05-04 00:21 32.76365 -82.34570 14967 ft 278 kts 60°
2026-05-04 00:21 32.77316 -82.32579 14964 ft 276 kts 51°
2026-05-04 00:22 32.78635 -82.30958 14966 ft 271 kts 34°
2026-05-04 00:22 32.80228 -82.29818 14968 ft 267 kts 21°
2026-05-04 00:22 32.81901 -82.28860 14967 ft 267 kts 21°
2026-05-04 00:22 32.83564 -82.27881 14968 ft 267 kts 22°
2026-05-04 00:23 32.85229 -82.26904 14969 ft 267 kts 21°
2026-05-04 00:23 32.86893 -82.25932 14970 ft 267 kts 21°
2026-05-04 00:23 32.88538 -82.24972 14970 ft 267 kts 21°
2026-05-04 00:23 32.90207 -82.23996 14970 ft 267 kts 22°
2026-05-04 00:24 32.91873 -82.23018 14975 ft 267 kts 22°
2026-05-04 00:24 32.93546 -82.22039 14967 ft 267 kts 21°
2026-05-04 00:24 32.95209 -82.21066 14967 ft 266 kts 22°
2026-05-04 00:24 32.96864 -82.20093 14913 ft 262 kts 22°
2026-05-04 00:25 32.98508 -82.19130 14475 ft 266 kts 21°
2026-05-04 00:25 33.00187 -82.18149 14001 ft 271 kts 22°
2026-05-04 00:25 33.01882 -82.17151 13479 ft 272 kts 22°
2026-05-04 00:25 33.03578 -82.16154 12954 ft 272 kts 22°
2026-05-04 00:26 33.05269 -82.15159 12448 ft 269 kts 22°
2026-05-04 00:26 33.06874 -82.14213 11937 ft 246 kts 22°
2026-05-04 00:26 33.08351 -82.13346 11437 ft 228 kts 22°
2026-05-04 00:26 33.09734 -82.12535 10948 ft 216 kts 22°
2026-05-04 00:27 33.11051 -82.11763 10469 ft 207 kts 22°
2026-05-04 00:27 33.12322 -82.11016 10001 ft 200 kts 22°
2026-05-04 00:27 33.13555 -82.10290 9491 ft 195 kts 22°
2026-05-04 00:27 33.14762 -82.09581 8985 ft 192 kts 22°
2026-05-04 00:28 33.15934 -82.08891 8500 ft 189 kts 22°
2026-05-04 00:28 33.17109 -82.08200 8021 ft 187 kts 23°
2026-05-04 00:28 33.18272 -82.07512 7550 ft 185 kts 23°
2026-05-04 00:28 33.19425 -82.06834 7095 ft 184 kts 24°
2026-05-04 00:29 33.20569 -82.06160 6650 ft 183 kts 24°
2026-05-04 00:29 33.21706 -82.05488 6189 ft 182 kts 24°
2026-05-04 00:29 33.22841 -82.04819 5724 ft 181 kts 24°
2026-05-04 00:29 33.23972 -82.04153 5268 ft 181 kts 25°
2026-05-04 00:30 33.25101 -82.03486 4819 ft 181 kts 25°
2026-05-04 00:30 33.26228 -82.02818 4348 ft 180 kts 25°
2026-05-04 00:30 33.26971 -82.02381 4068 ft 180 kts 25°
2026-05-04 00:30 33.28084 -82.01724 3628 ft 177 kts 25°
2026-05-04 00:31 33.29187 -82.01072 3193 ft 177 kts 25°
2026-05-04 00:31 33.30642 -82.00206 2628 ft 176 kts 25°
2026-05-04 00:31 33.31386 -81.99768 2334 ft 176 kts 25°
2026-05-04 00:31 33.32781 -81.98948 1883 ft 161 kts 25°
2026-05-04 00:32 33.33450 -81.98558 1643 ft 156 kts 22°
2026-05-04 00:32 33.34501 -81.98469 1284 ft 152 kts 346°
2026-05-04 00:32 33.35500 -81.98791 1006 ft 147 kts 343°
2026-05-04 00:32 33.36430 -81.99086 981 ft 133 kts 344°
2026-05-04 00:33 33.37259 -81.99340 978 ft 112 kts 345°
2026-05-04 00:33 33.38690 -81.99701 982 ft 102 kts 346°
2026-05-04 00:33 33.39376 -81.99872 984 ft 99 kts 346°
2026-05-04 00:34 33.40063 -81.99892 935 ft 105 kts 25°
2026-05-04 00:34 33.40516 -81.99216 862 ft 106 kts 77°
2026-05-04 00:34 33.40569 -81.98349 790 ft 104 kts 106°
2026-05-04 00:34 33.40078 -81.97751 656 ft 101 kts 155°
2026-05-04 00:35 33.39442 -81.97412 490 ft 99 kts 162°
2026-05-04 00:35 33.38806 -81.97224 326 ft 91 kts 171°
2026-05-04 00:35 33.38212 -81.97084 178 ft 83 kts 170°
2026-05-04 00:35 33.37700 -81.96955 150 ft 67 kts 167°
2026-05-04 00:36 33.37306 -81.96850 150 ft 50 kts 168°
2026-05-04 00:36 33.37004 -81.96776 149 ft 39 kts 168°
2026-05-04 00:36 33.36766 -81.96717 149 ft 20 kts 167°
2026-05-04 00:36 33.36722 -81.96814 148 ft 15 kts 275°
2026-05-04 00:37 33.36806 -81.96863 148 ft 16 kts 349°
2026-05-04 00:37 33.36929 -81.96892 149 ft 20 kts 350°
2026-05-04 00:37 33.37063 -81.96925 149 ft 12 kts 347°
2026-05-04 00:37 33.37080 -81.97003 149 ft 12 kts 264°
2026-05-04 00:38 33.37145 -81.97041 149 ft 14 kts 347°
2026-05-04 00:38 33.37166 -81.97115 149 ft 9 kts 255°
2026-05-04 00:38 33.37168 -81.97167 149 ft 4 kts 329°
2026-05-04 00:38 33.37179 -81.97172 149 ft 0 kts 343°